• In Czech Republic
  • List of Countries
  • For 7 days
  • Water Temperature
  • Satellite Maps
  • Weather Map
  • Weather Widgets
  • user-avatar
    Login

    Hourly Weather Bogorodchany

    Today, 19 June, Tuesday

    Time Temperature Precipitation Wind Pressure Humidity
    00:00 +21°C° 0 mm 1 mps 732 mmHg 93%
    01:00 +21°C° 0 mm 1 mps 732 mmHg 93%
    02:00 +15°C° 0 mm 0 mps 733 mmHg 96%
    03:00 +18°C° 0 mm 1 mps 733 mmHg 95%
    04:00 +18°C° 0 mm 1 mps 733 mmHg 93%
    05:00 +18°C° 0 mm 1 mps 734 mmHg 92%
    06:00 +18°C° 0 mm 1 mps 734 mmHg 95%
    07:00 +17°C° 0 mm 0 mps 734 mmHg 97%
    08:00 +21°C° 0 mm 1 mps 735 mmHg 95%
    09:00 +22°C° 0 mm 1 mps 735 mmHg 91%
    10:00 +23°C° 0 mm 1 mps 735 mmHg 90%
    11:00 +24°C° 0 mm 1 mps 735 mmHg 89%
    12:00 +25°C° 0 mm 1 mps 735 mmHg 87%
    13:00 +26°C° 0 mm 2 mps 735 mmHg 84%
    14:00 +27°C° 0 mm 1 mps 735 mmHg 79%
    15:00 +27°C° 0 mm 1 mps 735 mmHg 75%
    16:00 +27°C° 0 mm 2 mps 734 mmHg 75%
    17:00 +27°C° 0 mm 1 mps 734 mmHg 77%
    18:00 +27°C° 0 mm 1 mps 734 mmHg 79%
    19:00 +26°C° 0 mm 1 mps 734 mmHg 84%
    20:00 +25°C° 0 mm 1 mps 734 mmHg 90%
    21:00 +24°C° 0.8 mm 2 mps 735 mmHg 96%
    22:00 +23°C° 0.2 mm 2 mps 735 mmHg 96%
    23:00 +21°C° 0 mm 2 mps 736 mmHg 98%

    Tomorrow, 20 June, Wednesday

    Time Temperature Precipitation Wind Pressure Humidity
    00:00 +21°C° 0 mm 2 mps 736 mmHg 100%
    01:00 +20°C° 0 mm 2 mps 736 mmHg 99%
    02:00 +20°C° 0 mm 2 mps 736 mmHg 100%
    03:00 +20°C° 0 mm 2 mps 736 mmHg 100%
    04:00 +19°C° 0 mm 2 mps 736 mmHg 99%
    05:00 +19°C° 0 mm 2 mps 736 mmHg 99%
    06:00 +20°C° 0 mm 2 mps 737 mmHg 98%
    07:00 +20°C° 0 mm 2 mps 737 mmHg 96%
    08:00 +21°C° 0 mm 2 mps 737 mmHg 94%
    09:00 +23°C° 0 mm 1 mps 737 mmHg 93%
    10:00 +24°C° 0 mm 1 mps 738 mmHg 90%
    11:00 +24°C° 0 mm 1 mps 738 mmHg 88%
    12:00 +24°C° 0 mm 1 mps 738 mmHg 86%
    13:00 +25°C° 0 mm 1 mps 737 mmHg 84%
    14:00 +25°C° 0 mm 2 mps 737 mmHg 84%
    15:00 +26°C° 0 mm 1 mps 737 mmHg 83%
    16:00 +26°C° 0 mm 2 mps 736 mmHg 83%
    17:00 +26°C° 0 mm 2 mps 736 mmHg 81%
    18:00 +25°C° 0 mm 2 mps 736 mmHg 78%
    19:00 +25°C° 0 mm 2 mps 736 mmHg 91%
    20:00 +24°C° 0 mm 1 mps 736 mmHg 93%
    21:00 +22°C° 0 mm 0 mps 736 mmHg 86%
    22:00 +23°C° 0 mm 1 mps 736 mmHg 89%
    23:00 +22°C° 0 mm 1 mps 736 mmHg 94%

    Day after tomorrow, 21 June, Thursday

    Time Temperature Precipitation Wind Pressure Humidity
    00:00 +20°C° 0 mm 0 mps 736 mmHg 96%
    01:00 +19°C° 0 mm 0 mps 736 mmHg 98%
    02:00 +19°C° 0 mm 0 mps 736 mmHg 100%
    03:00 +19°C° 0 mm 0 mps 735 mmHg 100%
    04:00 +18°C° 0 mm 0 mps 735 mmHg 100%
    05:00 +17°C° 0 mm 0 mps 735 mmHg 100%
    06:00 +17°C° 0 mm 0 mps 734 mmHg 100%
    07:00 +18°C° 0 mm 0 mps 734 mmHg 100%
    08:00 +21°C° 0 mm 1 mps 734 mmHg 100%
    09:00 +23°C° 0 mm 2 mps 734 mmHg 97%
    10:00 +25°C° 0 mm 3 mps 734 mmHg 93%
    11:00 +26°C° 0 mm 3 mps 734 mmHg 89%
    12:00 +27°C° 0 mm 3 mps 733 mmHg 88%
    13:00 +27°C° 0 mm 3 mps 732 mmHg 87%
    14:00 +27°C° 0 mm 4 mps 732 mmHg 88%
    15:00 +27°C° 0.6 mm 5 mps 731 mmHg 90%
    16:00 +27°C° 0.5 mm 5 mps 731 mmHg 90%
    17:00 +27°C° 0 mm 4 mps 730 mmHg 89%
    18:00 +27°C° 0 mm 3 mps 730 mmHg 90%
    19:00 +26°C° 0 mm 3 mps 729 mmHg 91%
    20:00 +26°C° 0 mm 2 mps 729 mmHg 94%
    21:00 +25°C° 0 mm 2 mps 728 mmHg 96%
    22:00 +24°C° 0 mm 2 mps 728 mmHg 98%
    23:00 +24°C° 0 mm 2 mps 728 mmHg 97%

    22 June, Friday

    Time Temperature Precipitation Wind Pressure Humidity
    00:00 +24°C° 0 mm 1 mps 728 mmHg 92%
    01:00 +23°C° 0 mm 1 mps 727 mmHg 91%
    02:00 +23°C° 0 mm 1 mps 727 mmHg 91%
    03:00 +20°C° 0 mm 0 mps 727 mmHg 95%
    04:00 +20°C° 0 mm 0 mps 727 mmHg 94%
    05:00 +21°C° 0 mm 1 mps 727 mmHg 97%
    06:00 +22°C° 0 mm 1 mps 727 mmHg 99%
    07:00 +20°C° 0 mm 6 mps 728 mmHg 98%
    08:00 +19°C° 0 mm 4 mps 728 mmHg 97%
    09:00 +18°C° 0 mm 3 mps 728 mmHg 96%
    10:00 +18°C° 0 mm 4 mps 729 mmHg 95%
    11:00 +17°C° 0 mm 5 mps 728 mmHg 96%
    12:00 +16°C° 0 mm 6 mps 728 mmHg 95%
    13:00 +15°C° 0 mm 5 mps 729 mmHg 96%
    14:00 +14°C° 0.2 mm 3 mps 728 mmHg 99%
    15:00 +17°C° 0 mm 2 mps 728 mmHg 95%
    16:00 +19°C° 0 mm 5 mps 728 mmHg 87%
    17:00 +17°C° 0 mm 5 mps 728 mmHg 87%
    18:00 +18°C° 0 mm 4 mps 729 mmHg 88%
    19:00 +15°C° 0 mm 5 mps 728 mmHg 90%
    20:00 +14°C° 0 mm 3 mps 729 mmHg 86%
    21:00 +14°C° 0 mm 3 mps 729 mmHg 89%
    22:00 +14°C° 0 mm 3 mps 729 mmHg 92%
    23:00 +13°C° 0 mm 3 mps 730 mmHg 91%

    23 June, Saturday

    Time Temperature Precipitation Wind Pressure Humidity
    00:00 +13°C° 0 mm 3 mps 730 mmHg 91%
    01:00 +13°C° 0 mm 3 mps 730 mmHg 91%
    02:00 +12°C° 0 mm 3 mps 730 mmHg 91%

    24 June, Sunday

    Time Temperature Precipitation Wind Pressure Humidity
    Show more